• In Uzbekistan
  • List of Countries
  • For 7 days
  • Water Temperature
  • Satellite Maps
  • Weather Map
  • Weather Widgets
  • user-avatar
    Login

    Hourly Weather Kamahal

    Today, 17 October, Wednesday

    Time Temperature Precipitation Wind Pressure Humidity
    00:00 +8°C° 0 mm 1 mps 629 mmHg 80%
    01:00 +7°C° 0 mm 1 mps 629 mmHg 78%
    02:00 +7°C° 0 mm 1 mps 629 mmHg 76%
    03:00 +7°C° 0 mm 1 mps 629 mmHg 72%
    04:00 +7°C° 0 mm 1 mps 629 mmHg 69%
    05:00 +7°C° 0 mm 1 mps 629 mmHg 67%
    06:00 +7°C° 0 mm 1 mps 629 mmHg 64%
    07:00 +9°C° 0 mm 1 mps 629 mmHg 57%
    08:00 +11°C° 0 mm 1 mps 630 mmHg 50%
    09:00 +13°C° 0 mm 1 mps 631 mmHg 42%
    10:00 +14°C° 0 mm 1 mps 631 mmHg 41%
    11:00 +15°C° 0 mm 2 mps 631 mmHg 40%
    12:00 +16°C° 0 mm 2 mps 631 mmHg 39%
    13:00 +15°C° 0 mm 2 mps 631 mmHg 42%
    14:00 +15°C° 0 mm 2 mps 631 mmHg 46%
    15:00 +15°C° 0 mm 2 mps 630 mmHg 49%
    16:00 +13°C° 0 mm 2 mps 630 mmHg 59%
    17:00 +11°C° 0 mm 1 mps 629 mmHg 70%
    18:00 +9°C° 0 mm 1 mps 628 mmHg 80%
    19:00 +9°C° 0 mm 1 mps 628 mmHg 76%
    20:00 +9°C° 0 mm 1 mps 628 mmHg 72%
    21:00 +8°C° 0 mm 1 mps 628 mmHg 68%
    22:00 +8°C° 0 mm 1 mps 628 mmHg 62%
    23:00 +8°C° 0 mm 1 mps 627 mmHg 56%

    Tomorrow, 18 October, Thursday

    Time Temperature Precipitation Wind Pressure Humidity
    00:00 +8°C° 0 mm 1 mps 627 mmHg 50%
    01:00 +8°C° 0 mm 1 mps 627 mmHg 47%
    02:00 +8°C° 0 mm 1 mps 627 mmHg 43%
    03:00 +7°C° 0 mm 1 mps 627 mmHg 39%
    04:00 +7°C° 0 mm 1 mps 627 mmHg 36%
    05:00 +7°C° 0 mm 1 mps 626 mmHg 32%
    06:00 +7°C° 0 mm 1 mps 626 mmHg 29%
    07:00 +9°C° 0 mm 1 mps 627 mmHg 27%
    08:00 +12°C° 0 mm 1 mps 628 mmHg 25%
    09:00 +14°C° 0 mm 1 mps 629 mmHg 23%
    10:00 +15°C° 0 mm 1 mps 629 mmHg 25%
    11:00 +15°C° 0 mm 2 mps 630 mmHg 26%
    12:00 +16°C° 0 mm 2 mps 630 mmHg 28%
    13:00 +16°C° 0 mm 2 mps 629 mmHg 32%
    14:00 +16°C° 0 mm 2 mps 629 mmHg 36%
    15:00 +15°C° 0 mm 2 mps 629 mmHg 41%
    16:00 +13°C° 0 mm 1 mps 628 mmHg 52%
    17:00 +11°C° 0 mm 1 mps 628 mmHg 63%
    18:00 +9°C° 0 mm 1 mps 627 mmHg 74%
    19:00 +9°C° 0 mm 1 mps 627 mmHg 69%
    20:00 +9°C° 0 mm 1 mps 627 mmHg 64%
    21:00 +8°C° 0 mm 1 mps 627 mmHg 59%
    22:00 +8°C° 0 mm 1 mps 627 mmHg 54%
    23:00 +8°C° 0 mm 1 mps 627 mmHg 50%

    Day after tomorrow, 19 October, Friday

    Time Temperature Precipitation Wind Pressure Humidity
    00:00 +7°C° 0 mm 2 mps 627 mmHg 46%
    01:00 +7°C° 0 mm 2 mps 627 mmHg 43%
    02:00 +7°C° 0 mm 2 mps 626 mmHg 41%
    03:00 +6°C° 0 mm 2 mps 626 mmHg 39%
    04:00 +6°C° 0 mm 2 mps 626 mmHg 37%
    05:00 +6°C° 0 mm 2 mps 626 mmHg 35%
    06:00 +6°C° 0 mm 2 mps 626 mmHg 33%
    07:00 +9°C° 0 mm 1 mps 627 mmHg 29%
    08:00 +12°C° 0 mm 1 mps 628 mmHg 25%
    09:00 +14°C° 0 mm 1 mps 629 mmHg 21%
    10:00 +15°C° 0 mm 1 mps 629 mmHg 22%
    11:00 +16°C° 0 mm 2 mps 629 mmHg 22%
    12:00 +17°C° 0 mm 2 mps 629 mmHg 23%
    13:00 +17°C° 0 mm 2 mps 629 mmHg 27%
    14:00 +17°C° 0 mm 2 mps 629 mmHg 31%
    15:00 +16°C° 0 mm 2 mps 628 mmHg 36%
    16:00 +14°C° 0 mm 2 mps 628 mmHg 45%
    17:00 +12°C° 0 mm 1 mps 627 mmHg 55%
    18:00 +10°C° 0 mm 1 mps 626 mmHg 65%
    19:00 +10°C° 0 mm 1 mps 626 mmHg 63%
    20:00 +9°C° 0 mm 2 mps 626 mmHg 62%
    21:00 +8°C° 0 mm 2 mps 626 mmHg 60%
    22:00 +8°C° 0 mm 2 mps 626 mmHg 61%
    23:00 +8°C° 0 mm 2 mps 626 mmHg 62%

    20 October, Saturday

    Time Temperature Precipitation Wind Pressure Humidity
    00:00 +8°C° 0 mm 2 mps 625 mmHg 62%
    01:00 +8°C° 0 mm 2 mps 625 mmHg 63%
    02:00 +7°C° 0 mm 2 mps 625 mmHg 63%
    03:00 +7°C° 0 mm 2 mps 625 mmHg 63%
    04:00 +7°C° 0 mm 2 mps 624 mmHg 60%
    05:00 +7°C° 0 mm 2 mps 624 mmHg 57%
    06:00 +7°C° 0 mm 2 mps 624 mmHg 54%
    07:00 +10°C° 0 mm 2 mps 625 mmHg 46%
    08:00 +13°C° 0 mm 1 mps 626 mmHg 38%
    09:00 +16°C° 0 mm 1 mps 627 mmHg 30%
    10:00 +16°C° 0 mm 1 mps 627 mmHg 28%
    11:00 +17°C° 0 mm 2 mps 627 mmHg 27%
    12:00 +18°C° 0 mm 2 mps 627 mmHg 26%
    13:00 +18°C° 0 mm 2 mps 627 mmHg 28%
    14:00 +18°C° 0 mm 2 mps 627 mmHg 31%
    15:00 +18°C° 0 mm 2 mps 626 mmHg 33%
    16:00 +16°C° 0 mm 1 mps 626 mmHg 39%
    17:00 +13°C° 0 mm 1 mps 625 mmHg 46%
    18:00 +11°C° 0 mm 1 mps 624 mmHg 52%
    19:00 +11°C° 0 mm 1 mps 624 mmHg 49%
    20:00 +11°C° 0 mm 1 mps 624 mmHg 47%
    21:00 +11°C° 0 mm 1 mps 624 mmHg 44%
    22:00 +10°C° 0 mm 1 mps 624 mmHg 42%
    23:00 +10°C° 0 mm 1 mps 624 mmHg 41%

    21 October, Sunday

    Time Temperature Precipitation Wind Pressure Humidity
    00:00 +9°C° 0 mm 2 mps 624 mmHg 40%
    01:00 +9°C° 0 mm 2 mps 623 mmHg 40%
    02:00 +9°C° 0 mm 2 mps 623 mmHg 40%
    03:00 +9°C° 0 mm 2 mps 623 mmHg 41%
    04:00 +8°C° 0 mm 2 mps 623 mmHg 41%
    05:00 +8°C° 0 mm 2 mps 623 mmHg 41%
    06:00 +8°C° 0 mm 2 mps 623 mmHg 42%
    07:00 +11°C° 0 mm 1 mps 624 mmHg 38%
    08:00 +14°C° 0 mm 1 mps 625 mmHg 34%
    09:00 +16°C° 0 mm 1 mps 626 mmHg 30%
    10:00 +16°C° 0 mm 1 mps 626 mmHg 31%
    11:00 +18°C° 0 mm 1 mps 626 mmHg 31%
    12:00 +18°C° 0 mm 2 mps 626 mmHg 32%
    13:00 +18°C° 0 mm 2 mps 625 mmHg 35%
    14:00 +17°C° 0 mm 2 mps 625 mmHg 38%
    15:00 +17°C° 0 mm 2 mps 624 mmHg 41%
    16:00 +15°C° 0 mm 1 mps 624 mmHg 47%
    17:00 +14°C° 0 mm 1 mps 623 mmHg 54%
    18:00 +12°C° 0 mm 1 mps 623 mmHg 61%
    19:00 +12°C° 0 mm 1 mps 623 mmHg 61%
    20:00 +11°C° 0 mm 1 mps 623 mmHg 61%
    21:00 +11°C° 0 mm 1 mps 622 mmHg 61%
    22:00 +11°C° 0 mm 1 mps 622 mmHg 61%
    23:00 +11°C° 0 mm 1 mps 622 mmHg 62%

    22 October, Monday

    Time Temperature Precipitation Wind Pressure Humidity
    00:00 +10°C° 0 mm 2 mps 622 mmHg 62%
    01:00 +11°C° 0 mm 1 mps 622 mmHg 62%
    02:00 +11°C° 0 mm 1 mps 622 mmHg 62%
    03:00 +11°C° 0 mm 1 mps 622 mmHg 62%
    04:00 +11°C° 0 mm 1 mps 622 mmHg 63%
    05:00 +10°C° 0 mm 1 mps 622 mmHg 64%
    06:00 +10°C° 0 mm 1 mps 622 mmHg 64%
    07:00 +12°C° 0 mm 1 mps 622 mmHg 59%
    08:00 +13°C° 0 mm 1 mps 623 mmHg 53%
    09:00 +15°C° 0 mm 1 mps 624 mmHg 48%
    10:00 +16°C° 0 mm 1 mps 624 mmHg 46%
    11:00 +17°C° 0 mm 2 mps 624 mmHg 44%
    12:00 +18°C° 0 mm 2 mps 625 mmHg 41%
    13:00 +17°C° 0 mm 2 mps 624 mmHg 44%
    14:00 +17°C° 0 mm 2 mps 624 mmHg 46%
    15:00 +17°C° 0 mm 2 mps 624 mmHg 48%
    16:00 +15°C° 0 mm 2 mps 624 mmHg 56%
    17:00 +13°C° 0 mm 1 mps 624 mmHg 64%
    18:00 +12°C° 0 mm 1 mps 623 mmHg 73%
    19:00 +11°C° 0 mm 1 mps 624 mmHg 73%
    20:00 +11°C° 0 mm 1 mps 624 mmHg 74%
    21:00 +11°C° 0 mm 1 mps 624 mmHg 75%
    22:00 +10°C° 0 mm 1 mps 624 mmHg 75%
    23:00 +10°C° 0 mm 1 mps 624 mmHg 74%
    Show more